Regional Weather Roundup
Issued by NWS Kansas City/Pleasant Hill, MO

Home | Current Version | Previous Version | Text Only | Print | Product List | Glossary On
Versions: 1 2 3 4 5 6 7 8 9 10 11 12 13 14 15 16 17 18 19 20 21 22 23 24 25 26 27 28 29 30 31 32 33 34 35 36 37 38 39 40 41 42 43 44 45 46 47 48 49 50
000
ASUS43 KEAX 040411
RWREAX

WEATHER ROUNDUP FOR EASTERN KANSAS AND NORTHWEST MISSOURI
NATIONAL WEATHER SERVICE KANSAS CITY/PLEASANT HILL MO
1100 PM CDT SUN MAY 03 2015

KSZ040-057-103>105-MOZ028-029-037-043-040500-
...KANSAS CITY METROPOLITAN AREA...

CITY           SKY/WX    TMP DP  RH WIND       PRES   REMARKS
K.C. INTL      CLOUDY    71  58  63 S21G26    29.90R
K.C. DOWNTOWN  MOCLDY    74  57  55 S18G25    29.89R
LEES SUMMIT    PTCLDY    72  55  55 SW17G23   29.91R
OLATHE - IXD   PTCLDY    70  57  63 S15       29.92R
OLATHE - OJC   PTCLDY    70  57  63 SW13      29.92R
LAWRENCE       PTCLDY    71  57  61 S10       29.90R

$$

MOZ001>008-011>017-020>025-030>033-038>040-044>046-053-054-040500-
...NORTHERN AND CENTRAL MISSOURI...

CITY           SKY/WX    TMP DP  RH WIND       PRES   REMARKS
ST. JOSEPH     CLOUDY    72  59  63 S6        29.90R
MOSBY          CLOUDY    72  55  56 S7        29.91R
WARRENSBURG    PTCLDY    68  55  64 S7        29.93R
WHITEMAN AFB   PTCLDY    68  58  69 SW10      29.92R
CLINTON        CLEAR     72  59  64 S9        29.93S
SEDALIA        PTCLDY    67  57  70 S8        29.94R
WARSAW         NOT AVBL
CHILLICOTHE      N/A     71  58  63 S7        29.91R
MOBERLY        PTCLDY    72  52  49 S10       29.94R
KIRKSVILLE     CLOUDY    73  57  57 SW14G21   29.92R

$$

MOZ041-047>049-056>058-063>065-088>090-097-040500-
...EASTERN AND SOUTHERN MISSOURI...

CITY           SKY/WX    TMP DP  RH WIND       PRES   REMARKS
ST. LOUIS INTL PTCLDY    75  50  41 S12       29.96F
SPIRIT OF STL  PTCLDY    73  51  46 S9        29.94F
COLUMBIA       CLEAR     66  55  67 S9        29.94S
JEFFERSON CITY CLEAR     71  53  52 SE7       29.93F
MEXICO         CLEAR     70  59  68 S9        29.92F
HANNIBAL       CLEAR     70  52  52 S9        29.93R
ROLLA          CLEAR     69  53  56 S12       29.97S
LEBANON        PTCLDY    68  54  60 S8        29.99S
OSAGE BEACH    PTCLDY    70  54  56 S5        29.96S
SPRINGFIELD    CLEAR     66  55  67 S8        29.98S
BRANSON        CLEAR     66  55  68 CALM      30.03R
NEVADA         CLEAR     63  57  82 S9        29.96S
JOPLIN         PTCLDY    67  57  70 S10       29.97R
WEST PLAINS    CLEAR     69  53  56 S8        30.03S

$$

IAZ060-094-KSZ022-034>040-054-083-096-NEZ052-066-093-040500-
...KANSAS...SOUTHEAST NEBRASKA AND IOWA...

CITY           SKY/WX    TMP DP  RH WIND       PRES   REMARKS
TOPEKA         PTCLDY    73  57  57 S13G21    29.88R
MANHATTAN      CLEAR     73  58  59 S9        29.86R
EMPORIA        CLEAR     68  56  65 S15       29.90R
CHANUTE        CLEAR     65  57  75 S9        29.95R
WICHITA        MOCLDY    69  54  58 S14       29.90R
OMAHA          CLOUDY    73  54  51 S6        29.82S
LINCOLN        CLOUDY    66  58  75 NE8       29.85R
FALLS CITY     CLOUDY    73  56  54 N10       29.89R
LAMONI         LGT RAIN  69  55  60 SW16G24   29.88R
DES MOINES     CLOUDY    72  57  59 SE6       29.83R

$$




USA.gov is the U.S. government's official web portal to all federal, state and local government web resources and services.